My Profile
  1. Member Settings
  2. My Devices
  3. Sign Out
        More Settings
      Elev 6 ft, 56.458 °N 5.397 °W

      North Connel, GB

      Oban Airport Station50°

      Daily Observations

      DateTemp High/LowDew Pt High/LowHumidityWindMax WindWind GustPressurePrecip.Condition
      3/31/2017 52 °F / 50 °F 50 °F / 46 °F 93 % 20 mph - 29.41 in 0 in
      3/30/2017 59 °F / 52 °F 50 °F / 48 °F 80 % 16 mph - 29.74 in 0 in
      3/29/2017 54 °F / 46 °F 48 °F / 43 °F 82 % 17 mph - 29.85 in 0 in
      3/28/2017 54 °F / 41 °F 41 °F / 36 °F 69 % 12 mph - 29.96 in 0 in
      3/27/2017 59 °F / 43 °F 45 °F / 39 °F 68 % 10 mph - 30.19 in 0 in
      3/26/2017 61 °F / 37 °F 41 °F / 34 °F 57 % 12 mph - 30.33 in 0 in
      3/25/2017 50 °F / 36 °F 39 °F / 32 °F 69 % 9 mph - 30.49 in 0 in
      3/24/2017 50 °F / 37 °F 39 °F / 34 °F 75 % 9 mph - 30.49 in 0 in
      3/23/2017 48 °F / 37 °F 34 °F / 27 °F 57 % 10 mph - 30.31 in 0 in
      3/22/2017 46 °F / 28 °F 32 °F / 28 °F 71 % 17 mph - 29.85 in 0 in
      3/21/2017 45 °F / 37 °F 36 °F / 27 °F 74 % 28 mph - 29.41 in 0 in
      3/20/2017 46 °F / 43 °F 37 °F / 34 °F 73 % 29 mph - 29.24 in 0 in
      3/19/2017 50 °F / 45 °F 45 °F / 39 °F 81 % 23 mph - 29.43 in 0 in
      3/18/2017 50 °F / 43 °F 46 °F / 41 °F 95 % 12 mph - 29.6 in 0 in
      3/13/2017 50 °F / 46 °F 43 °F / 39 °F 74 % 18 mph - 30.22 in 0 in
      3/12/2017 50 °F / 48 °F 46 °F / 43 °F 88 % 18 mph - 29.85 in 0 in
      3/11/2017 50 °F / 48 °F 48 °F / 46 °F 92 % 10 mph - 29.89 in 0 in
      3/10/2017 50 °F / 43 °F 46 °F / 37 °F 86 % 14 mph - 30.03 in 0 in
      3/9/2017 48 °F / 43 °F 41 °F / 37 °F 74 % 17 mph - 30.04 in 0 in
      3/8/2017 50 °F / 46 °F 43 °F / 39 °F 78 % 31 mph - 29.56 in 0 in
      3/7/2017 48 °F / 41 °F 41 °F / 37 °F 83 % 13 mph - 29.85 in 0 in
      3/6/2017 48 °F / 41 °F 41 °F / 37 °F 84 % 14 mph - 29.58 in 0 in
      3/5/2017 48 °F / 39 °F 41 °F / 36 °F 80 % 9 mph - 29.1 in 0 in
      3/4/2017 45 °F / 41 °F 36 °F / 36 °F 75 % 12 mph - 29.12 in 0 in
      3/3/2017 48 °F / 36 °F 36 °F / 30 °F 66 % 10 mph - 29.42 in 0 in
      3/2/2017 46 °F / 39 °F 37 °F / 34 °F 78 % 26 mph - 29.51 in 0 in
      3/1/2017 45 °F / 36 °F 37 °F / 32 °F 81 % 10 mph - 29.29 in 0 in

      Charts

      Temperature
      Precipitation
      Wind
      essentialaccessibility.com
      We recognize our responsibility to use data and technology for good. We may use or share your data with our data vendors. Take control of your data.
      Glossary